Location: Unspecified
(59.3257°N, 0.0000°E)
Time: 16:46:45
(UTC+00:00)

Cosmos 789 Rocket - Visible Passes

Search period start: 04 April 2026 00:00
Search period end: 14 April 2026 00:00
Orbit: 962 x 997 km, 83.0° (Epoch: 29 March)

Date Brightness Start Highest point End Pass type
(mag) Time Alt. Az. Time Alt. Az. Time Alt. Az.
4 Apr 5.0 01:26:15 30° SSE 01:29:10 53° E 01:35:22 10° NNE visible
4 Apr 5.0 03:11:01 22° SW 03:14:52 45° WNW 03:20:59 10° N visible
5 Apr 6.3 00:08:03 15° ESE 00:11:11 22° ENE 00:15:53 10° NNE visible
5 Apr 4.6 01:52:49 34° S 01:55:47 80° E 02:02:12 10° NNE visible
5 Apr 5.5 03:37:34 15° WSW 03:42:00 32° WNW 03:47:38 10° N visible
6 Apr 5.7 00:34:36 23° SE 00:37:27 33° E 00:43:02 10° NNE visible
6 Apr 4.6 02:19:21 31° SSW 02:22:33 70° WNW 02:28:57 10° N visible
6 Apr 6.0 04:04:22 10° W 04:09:16 23° NW 04:14:13 10° N visible
6 Apr 6.7 23:16:57 10° E 23:19:51 14° ENE 23:22:45 10° NE visible
7 Apr 5.1 01:01:08 31° SSE 01:03:53 50° E 01:10:00 10° NNE visible
7 Apr 5.0 02:45:53 24° SW 02:49:29 48° WNW 02:55:39 10° N visible
7 Apr 6.3 23:42:54 15° ESE 23:45:56 21° ENE 23:50:28 10° NNE visible
8 Apr 4.6 01:27:40 36° S 01:30:27 76° E 01:36:51 10° NNE visible
8 Apr 5.5 03:12:24 17° WSW 03:16:34 33° WNW 03:22:18 10° N visible
9 Apr 5.8 00:09:25 23° ESE 00:12:10 31° E 00:17:39 10° NNE visible
9 Apr 4.5 01:54:10 33° SSW 01:57:11 74° WNW 02:03:37 10° NNE visible
9 Apr 6.0 03:38:55 10° WSW 03:43:51 24° NW 03:48:53 10° N visible
9 Apr 6.7 22:52:04 10° E 22:54:37 13° ENE 22:57:10 10° NE visible
10 Apr 5.2 00:35:55 31° SE 00:38:34 47° E 00:44:38 10° NNE visible
10 Apr 5.0 02:20:40 26° SW 02:24:06 50° WNW 02:30:19 10° N visible
10 Apr 6.3 04:07:10 10° W 04:11:17 17° NW 04:15:24 10° N visible
10 Apr 6.3 23:17:40 14° ESE 23:20:40 20° ENE 23:25:01 10° NNE visible
11 Apr 4.6 01:02:25 36° S 01:05:08 72° E 01:11:29 10° NNE visible
11 Apr 5.5 02:47:09 18° WSW 02:51:11 35° WNW 02:56:58 10° N visible
11 Apr 5.8 23:44:09 22° ESE 23:46:54 30° E 23:52:15 10° NNE visible
12 Apr 4.5 01:28:53 34° SSW 01:31:51 78° WNW 01:38:16 10° NNE visible
12 Apr 5.9 03:13:38 11° WSW 03:18:25 25° NW 03:23:34 10° N visible
12 Apr 6.7 22:27:15 10° E 22:29:23 12° ENE 22:31:31 10° NE visible
13 Apr 5.2 00:10:37 30° SE 00:13:16 45° E 00:19:16 10° NNE visible
13 Apr 4.9 01:55:22 27° SW 01:58:44 53° WNW 02:04:59 10° N visible
13 Apr 6.3 03:41:34 10° W 03:45:50 18° NW 03:50:06 10° N visible
13 Apr 6.3 22:52:20 13° ESE 22:55:24 19° ENE 22:59:34 10° NNE visible
